Location: Peebles
(55.6412°N, 3.1714°W)
Time: 20:26:34
(UTC+01:00)

deb AGENA D - Pass Details

Date: 12 July 2022
Orbit: 951 x 1019 km, 99.8° (Epoch: 17 August)

Event Time Altitude Azimuth Distance (km) Brightness Sun altitude
Rises 22:54:49 0° 82° (E) 3,759 ? -6.7°
Reaches altitude 10° 22:58:49 10° 58° (ENE) 2,802 ? -7.0°
Maximum altitude 23:01:32 13° 32° (NNE) 2,564 ? -7.2°
Drops below altitude 10° 23:04:15 10° 6° (N) 2,791 ? -7.4°
Sets 23:08:11 0° 341° (NNW) 3,730 ? -7.7°
